Location: Cartignies
(50.0929°N, 3.8447°E)
Time: 14:09:17
(UTC+00:00)

Cosmos 2360 - Pass Details

Date: 12 January 2026
Orbit: 847 x 855 km, 70.7° (Epoch: 15 February)

Event Time Altitude Azimuth Distance (km) Brightness Sun altitude
Rises 19:15:50 0° 329° (NNW) 3,434 7.8 -29.5°
Reaches altitude 10° 19:18:18 10° 327° (NNW) 2,494 7.0 -29.9°
Enters shadow 19:23:41 68° 268° (W) 919 4.4 -30.8°
